CGLHA CYPL-CYPO

Flight info

Callsign CGLHA
Flight time N/A
Altitude 7000
Route CYPO
Aircraft C208/L-SDFGR/C

Departure

Time 2026-04-16 20:30
Airport Pickle Lake Airport (CYPL)

Arrival

Time N/A
Airport Peawanuck Airport (CYPO)
Time Latitude Longitude Altitude Speed Heading
2026-04-16 20:24 51.44795 -90.21243 1257 ft 0 kts 180°
2026-04-16 20:27 51.44789 -90.21243 1262 ft 4 kts 179°
2026-04-16 20:27 51.44737 -90.21275 1257 ft 13 kts 253°
2026-04-16 20:28 51.44736 -90.21467 1257 ft 22 kts 271°
2026-04-16 20:28 51.44734 -90.21748 1261 ft 28 kts 272°
2026-04-16 20:28 51.44736 -90.22066 1266 ft 26 kts 270°
2026-04-16 20:28 51.44738 -90.22304 1269 ft 14 kts 255°
2026-04-16 20:29 51.44680 -90.22449 1276 ft 18 kts 229°
2026-04-16 20:29 51.44653 -90.22302 1276 ft 24 kts 90°
2026-04-16 20:29 51.44652 -90.21798 1266 ft 69 kts 90°
2026-04-16 20:29 51.44650 -90.20918 1390 ft 84 kts 82°
2026-04-16 20:30 51.44685 -90.19958 1601 ft 86 kts 78°
2026-04-16 20:30 51.44778 -90.18949 1796 ft 98 kts 63°
2026-04-16 20:30 51.45250 -90.18201 2114 ft 99 kts 29°
2026-04-16 20:30 51.45833 -90.17555 2460 ft 104 kts 32°
2026-04-16 20:31 51.46415 -90.16851 2768 ft 104 kts 35°
2026-04-16 20:31 51.46945 -90.16063 3112 ft 104 kts 43°
2026-04-16 20:31 51.47369 -90.15133 3444 ft 102 kts 51°
2026-04-16 20:31 51.47758 -90.14197 3770 ft 99 kts 50°
2026-04-16 20:32 51.48074 -90.13221 4081 ft 98 kts 60°
2026-04-16 20:32 51.48292 -90.12156 4409 ft 98 kts 54°
2026-04-16 20:32 51.48687 -90.11318 4751 ft 92 kts 24°
2026-04-16 20:32 51.49216 -90.10700 5069 ft 95 kts 27°
2026-04-16 20:33 51.49558 -90.10244 5273 ft 97 kts 32°
2026-04-16 20:33 51.50069 -90.09533 5600 ft 97 kts 30°
2026-04-16 20:33 51.50559 -90.08828 5881 ft 90 kts 28°
2026-04-16 20:33 51.50789 -90.07575 4534 ft 194 kts 85°
2026-04-16 20:34 51.50882 -90.05470 4650 ft 175 kts 68°
2026-04-16 20:34 51.51411 -90.03889 5036 ft 156 kts 44°
2026-04-16 20:34 51.52310 -90.02968 4929 ft 156 kts 14°
2026-04-16 20:34 51.53340 -90.02431 5057 ft 155 kts 13°
2026-04-16 20:35 51.54322 -90.01761 5206 ft 157 kts 29°
2026-04-16 20:35 51.55037 -90.00318 5221 ft 169 kts 58°
2026-04-16 20:35 51.55620 -89.98758 5436 ft 156 kts 33°
2026-04-16 20:35 51.56514 -89.97883 5670 ft 148 kts 23°
2026-04-16 20:36 51.57386 -89.97026 5897 ft 145 kts 24°
2026-04-16 20:36 51.58230 -89.96170 6115 ft 142 kts 24°
2026-04-16 20:36 51.59052 -89.95313 6333 ft 140 kts 24°
2026-04-16 20:36 51.59875 -89.94422 6555 ft 143 kts 24°
2026-04-16 20:37 51.60693 -89.93522 6766 ft 142 kts 24°
2026-04-16 20:37 51.61499 -89.92636 6991 ft 145 kts 25°
2026-04-16 20:37 51.62372 -89.91695 7033 ft 158 kts 24°
2026-04-16 20:37 51.63320 -89.90706 7035 ft 167 kts 24°
2026-04-16 20:38 51.64318 -89.89669 7034 ft 173 kts 25°
2026-04-16 20:38 51.65341 -89.88612 7044 ft 176 kts 25°
2026-04-16 20:38 51.66383 -89.87539 7040 ft 179 kts 25°
2026-04-16 20:38 51.67440 -89.86477 7033 ft 179 kts 24°
2026-04-16 20:39 51.68493 -89.85404 7038 ft 180 kts 25°
2026-04-16 20:39 51.69547 -89.84317 7039 ft 179 kts 25°
2026-04-16 20:39 51.70597 -89.83244 7039 ft 178 kts 25°
2026-04-16 20:39 51.71641 -89.82178 7045 ft 177 kts 25°
2026-04-16 20:40 51.72682 -89.81113 7044 ft 178 kts 25°
2026-04-16 20:40 51.73728 -89.80048 7040 ft 177 kts 25°
2026-04-16 20:40 51.74770 -89.78989 7046 ft 177 kts 24°
2026-04-16 20:40 51.75809 -89.77927 7051 ft 177 kts 25°
2026-04-16 20:41 51.76848 -89.76873 7053 ft 176 kts 24°
2026-04-16 20:41 51.77885 -89.75816 7048 ft 176 kts 25°
2026-04-16 20:41 51.78919 -89.74760 7049 ft 176 kts 25°
2026-04-16 20:41 51.79938 -89.73719 7049 ft 175 kts 24°
2026-04-16 20:42 51.80981 -89.72652 7049 ft 175 kts 25°
2026-04-16 20:42 51.81997 -89.71610 7061 ft 176 kts 25°
2026-04-16 20:42 51.83039 -89.70548 7050 ft 176 kts 25°
2026-04-16 20:42 51.84073 -89.69490 7053 ft 176 kts 25°
2026-04-16 20:43 51.85103 -89.68439 7057 ft 175 kts 24°
2026-04-16 20:43 51.86133 -89.67386 7060 ft 175 kts 25°
2026-04-16 20:43 51.87168 -89.66329 7055 ft 176 kts 24°
2026-04-16 20:43 51.88207 -89.65277 7056 ft 176 kts 24°
2026-04-16 20:44 51.89248 -89.64213 7056 ft 177 kts 25°
2026-04-16 20:44 51.90287 -89.63163 7059 ft 176 kts 24°
2026-04-16 20:44 51.91323 -89.62109 7062 ft 176 kts 24°
2026-04-16 20:44 51.92363 -89.61056 7073 ft 177 kts 25°
2026-04-16 20:45 51.93406 -89.60005 7055 ft 176 kts 24°
2026-04-16 20:45 51.94445 -89.58956 7062 ft 177 kts 25°
2026-04-16 20:45 51.95491 -89.57899 7056 ft 176 kts 24°
2026-04-16 20:45 51.96529 -89.56857 7057 ft 175 kts 24°
2026-04-16 20:46 51.97548 -89.55828 7055 ft 175 kts 24°
2026-04-16 20:46 51.98577 -89.54788 7057 ft 174 kts 24°
2026-04-16 20:46 51.99602 -89.53751 7058 ft 174 kts 24°
2026-04-16 20:46 52.00627 -89.52716 7059 ft 173 kts 24°
2026-04-16 20:47 52.01650 -89.51683 7060 ft 173 kts 24°
2026-04-16 20:47 52.02671 -89.50651 7060 ft 173 kts 24°
2026-04-16 20:47 52.03642 -89.49670 7063 ft 172 kts 24°
2026-04-16 20:47 52.04660 -89.48642 7064 ft 172 kts 24°
2026-04-16 20:48 52.05677 -89.47611 7065 ft 172 kts 24°
2026-04-16 20:48 52.06697 -89.46595 7065 ft 170 kts 20°
2026-04-16 20:48 52.07765 -89.45818 7025 ft 170 kts 17°
2026-04-16 20:48 52.08880 -89.45364 7014 ft 164 kts
2026-04-16 20:49 52.09959 -89.44675 7019 ft 172 kts 24°
2026-04-16 20:49 52.10924 -89.43548 7017 ft 173 kts 30°
2026-04-16 20:49 52.11901 -89.42343 7019 ft 174 kts 29°
2026-04-16 20:49 52.12859 -89.41180 7023 ft 174 kts 29°
2026-04-16 20:50 52.13833 -89.40010 7026 ft 173 kts 29°
2026-04-16 20:50 52.14805 -89.38847 7022 ft 173 kts 29°
2026-04-16 20:50 52.15775 -89.37683 7036 ft 174 kts 29°
2026-04-16 20:50 52.16756 -89.36506 7030 ft 175 kts 29°
2026-04-16 20:51 52.17729 -89.35336 7030 ft 174 kts 29°
2026-04-16 20:51 52.18712 -89.34151 7035 ft 177 kts 30°
2026-04-16 20:51 52.19696 -89.32966 7036 ft 175 kts 29°
2026-04-16 20:51 52.20675 -89.31790 7037 ft 174 kts 29°
2026-04-16 20:52 52.21648 -89.30623 7041 ft 174 kts 29°
2026-04-16 20:52 52.22623 -89.29439 7047 ft 175 kts 30°
2026-04-16 20:52 52.23604 -89.28267 7043 ft 179 kts 29°
2026-04-16 20:52 52.24597 -89.27067 7044 ft 176 kts 30°
2026-04-16 20:53 52.25579 -89.25880 7044 ft 175 kts 29°
2026-04-16 20:53 52.26555 -89.24703 7036 ft 174 kts 30°
2026-04-16 20:53 52.27526 -89.23531 7035 ft 173 kts 30°
2026-04-16 20:53 52.28495 -89.22360 7038 ft 173 kts 30°
2026-04-16 20:54 52.29460 -89.21190 7038 ft 173 kts 29°
2026-04-16 20:54 52.30425 -89.20030 7038 ft 172 kts 30°
2026-04-16 20:54 52.31383 -89.18860 7042 ft 172 kts 30°
2026-04-16 20:54 52.32354 -89.17681 7043 ft 175 kts 30°
2026-04-16 20:55 52.33329 -89.16501 7049 ft 174 kts 30°
2026-04-16 20:55 52.34272 -89.15360 7048 ft 174 kts 29°
2026-04-16 20:55 52.35275 -89.14158 7049 ft 173 kts 30°
2026-04-16 20:55 52.36237 -89.12978 7047 ft 173 kts 30°
2026-04-16 20:56 52.37203 -89.11800 7043 ft 174 kts 30°
2026-04-16 20:56 52.38173 -89.10623 7047 ft 173 kts 30°
2026-04-16 20:56 52.39143 -89.09442 7042 ft 173 kts 30°
2026-04-16 20:56 52.40096 -89.08285 7045 ft 173 kts 30°
2026-04-16 20:57 52.41071 -89.07096 7044 ft 172 kts 30°
2026-04-16 20:57 52.42033 -89.05928 7045 ft 172 kts 30°
2026-04-16 20:57 52.42981 -89.04772 7045 ft 172 kts 30°
2026-04-16 20:57 52.43938 -89.03602 7046 ft 172 kts 30°
2026-04-16 20:58 52.44896 -89.02433 7046 ft 171 kts 30°
2026-04-16 20:58 52.45849 -89.01271 7049 ft 170 kts 30°
2026-04-16 20:58 52.46800 -89.00107 7042 ft 170 kts 30°
2026-04-16 20:58 52.47750 -88.98947 7044 ft 170 kts 30°
2026-04-16 20:59 52.48699 -88.97787 7047 ft 170 kts 30°
2026-04-16 20:59 52.49655 -88.96620 7051 ft 173 kts 30°
2026-04-16 20:59 52.50621 -88.95436 7053 ft 172 kts 30°
2026-04-16 20:59 52.51579 -88.94260 7051 ft 172 kts 30°
2026-04-16 21:00 52.52533 -88.93092 7050 ft 171 kts 30°
2026-04-16 21:00 52.53485 -88.91925 7048 ft 171 kts 30°
2026-04-16 21:00 52.54424 -88.90774 7048 ft 171 kts 30°
2026-04-16 21:00 52.55375 -88.89609 7044 ft 171 kts 30°
2026-04-16 21:01 52.56323 -88.88441 7049 ft 170 kts 30°
2026-04-16 21:01 52.57269 -88.87274 7055 ft 171 kts 30°
2026-04-16 21:01 52.58222 -88.86103 7055 ft 171 kts 30°
2026-04-16 21:01 52.59175 -88.84934 7053 ft 171 kts 30°
2026-04-16 21:02 52.60138 -88.83758 7062 ft 174 kts 31°
2026-04-16 21:02 52.61110 -88.82553 7056 ft 176 kts 31°
2026-04-16 21:02 52.62082 -88.81349 7056 ft 173 kts 30°
2026-04-16 21:03 52.64006 -88.78979 7053 ft 174 kts 30°
2026-04-16 21:03 52.64972 -88.77791 7068 ft 174 kts 30°
2026-04-16 21:03 52.65945 -88.76593 7058 ft 175 kts 31°
2026-04-16 21:03 52.66912 -88.75384 7063 ft 174 kts 30°
2026-04-16 21:04 52.67876 -88.74195 7062 ft 172 kts 30°
2026-04-16 21:04 52.68831 -88.73028 7070 ft 175 kts 30°
2026-04-16 21:04 52.69805 -88.71827 7067 ft 176 kts 31°
2026-04-16 21:04 52.70779 -88.70594 7077 ft 176 kts 31°
2026-04-16 21:05 52.71757 -88.69378 7060 ft 175 kts 31°
2026-04-16 21:05 52.72733 -88.68183 7067 ft 174 kts 30°
2026-04-16 21:05 52.73672 -88.67016 7076 ft 174 kts 30°
2026-04-16 21:05 52.74642 -88.65808 7066 ft 176 kts 31°
2026-04-16 21:06 52.75615 -88.64602 7070 ft 175 kts 31°
2026-04-16 21:06 52.76587 -88.63397 7073 ft 175 kts 31°
2026-04-16 21:06 52.77572 -88.62170 7064 ft 176 kts 31°
2026-04-16 21:06 52.78549 -88.60951 7065 ft 176 kts 31°
2026-04-16 21:07 52.79521 -88.59742 7066 ft 174 kts 31°
2026-04-16 21:07 52.80486 -88.58540 7064 ft 173 kts 31°
2026-04-16 21:07 52.81444 -88.57346 7063 ft 172 kts 31°
2026-04-16 21:07 52.82400 -88.56154 7068 ft 172 kts 31°
2026-04-16 21:08 52.83351 -88.54966 7063 ft 171 kts 31°
2026-04-16 21:08 52.84304 -88.53777 7070 ft 172 kts 31°
2026-04-16 21:08 52.85259 -88.52574 7068 ft 172 kts 30°
2026-04-16 21:08 52.86220 -88.51378 7075 ft 174 kts 32°
2026-04-16 21:09 52.87189 -88.50153 7085 ft 176 kts 29°
2026-04-16 21:09 52.88172 -88.48925 7071 ft 177 kts 30°
2026-04-16 21:09 52.89152 -88.47719 7073 ft 175 kts 31°
2026-04-16 21:09 52.90125 -88.46488 7076 ft 178 kts 31°
2026-04-16 21:10 52.91100 -88.45274 7067 ft 176 kts 31°
2026-04-16 21:10 52.92058 -88.44076 7070 ft 174 kts 31°
2026-04-16 21:10 52.93018 -88.42868 7067 ft 172 kts 31°
2026-04-16 21:10 52.93969 -88.41668 7067 ft 173 kts 31°
2026-04-16 21:11 52.94924 -88.40469 7069 ft 171 kts 31°
2026-04-16 21:11 52.95876 -88.39282 7073 ft 172 kts 32°
2026-04-16 21:11 52.96827 -88.38074 7070 ft 172 kts 31°
2026-04-16 21:11 52.97784 -88.36883 7071 ft 172 kts 31°
2026-04-16 21:12 52.98731 -88.35683 7069 ft 171 kts 31°
2026-04-16 21:12 52.99677 -88.34485 7065 ft 171 kts 31°
2026-04-16 21:12 53.00623 -88.33292 7064 ft 170 kts 31°
2026-04-16 21:12 53.01567 -88.32103 7066 ft 170 kts 31°
2026-04-16 21:13 53.02511 -88.30913 7066 ft 170 kts 31°
2026-04-16 21:13 53.03454 -88.29719 7071 ft 170 kts 31°
2026-04-16 21:13 53.04398 -88.28526 7070 ft 170 kts 31°
2026-04-16 21:13 53.05341 -88.27334 7072 ft 170 kts 31°
2026-04-16 21:14 53.06284 -88.26141 7074 ft 171 kts 31°
2026-04-16 21:14 53.07227 -88.24947 7067 ft 170 kts 31°
2026-04-16 21:14 53.08167 -88.23756 7069 ft 170 kts 31°
2026-04-16 21:14 53.09107 -88.22566 7075 ft 169 kts 31°
2026-04-16 21:15 53.10021 -88.21409 7074 ft 170 kts 31°
2026-04-16 21:15 53.10973 -88.20198 7077 ft 170 kts 31°
2026-04-16 21:15 53.11915 -88.19003 7079 ft 170 kts 31°
2026-04-16 21:15 53.12855 -88.17807 7077 ft 170 kts 31°
2026-04-16 21:16 53.13796 -88.16615 7078 ft 170 kts 31°
2026-04-16 21:16 53.14734 -88.15419 7081 ft 170 kts 31°
2026-04-16 21:16 53.15673 -88.14226 7081 ft 170 kts 31°
2026-04-16 21:16 53.16611 -88.13031 7082 ft 170 kts 31°
2026-04-16 21:17 53.17551 -88.11834 7082 ft 170 kts 31°
2026-04-16 21:17 53.18487 -88.10641 7084 ft 170 kts 31°
2026-04-16 21:17 53.19424 -88.09446 7084 ft 170 kts 31°
2026-04-16 21:17 53.20361 -88.08251 7085 ft 169 kts 31°
2026-04-16 21:18 53.21298 -88.07056 7084 ft 170 kts 31°
2026-04-16 21:18 53.22237 -88.05858 7085 ft 170 kts 31°
2026-04-16 21:18 53.23161 -88.04672 7089 ft 170 kts 31°
2026-04-16 21:18 53.24097 -88.03473 7084 ft 170 kts 31°
2026-04-16 21:19 53.25035 -88.02273 7089 ft 169 kts 31°
2026-04-16 21:19 53.25971 -88.01080 7087 ft 169 kts 31°
2026-04-16 21:19 53.26906 -87.99883 7087 ft 170 kts 31°
2026-04-16 21:19 53.27842 -87.98681 7089 ft 170 kts 31°
2026-04-16 21:20 53.28780 -87.97478 7088 ft 170 kts 31°
2026-04-16 21:20 53.29715 -87.96279 7090 ft 169 kts 31°
2026-04-16 21:20 53.30647 -87.95081 7092 ft 169 kts 31°
2026-04-16 21:20 53.31581 -87.93882 7092 ft 169 kts 31°
2026-04-16 21:21 53.32509 -87.92691 7093 ft 168 kts 31°
2026-04-16 21:21 53.33438 -87.91494 7090 ft 168 kts 31°
2026-04-16 21:21 53.34366 -87.90301 7091 ft 168 kts 31°
2026-04-16 21:21 53.35294 -87.89106 7090 ft 168 kts 31°
2026-04-16 21:22 53.36219 -87.87914 7091 ft 168 kts 31°
2026-04-16 21:22 53.37147 -87.86717 7094 ft 168 kts 31°
2026-04-16 21:22 53.37761 -87.85927 7095 ft 168 kts 31°
2026-04-16 21:22 53.38686 -87.84733 7094 ft 167 kts 31°
2026-04-16 21:23 53.39609 -87.83542 7094 ft 167 kts 31°
2026-04-16 21:23 53.40534 -87.82347 7093 ft 168 kts 31°
2026-04-16 21:23 53.41457 -87.81154 7094 ft 168 kts 31°
2026-04-16 21:23 53.42381 -87.79960 7093 ft 168 kts 31°
2026-04-16 21:24 53.43308 -87.78759 7096 ft 168 kts 31°
2026-04-16 21:24 53.44233 -87.77562 7096 ft 168 kts 31°
2026-04-16 21:24 53.45158 -87.76367 7096 ft 168 kts 31°
2026-04-16 21:24 53.46079 -87.75174 7098 ft 167 kts 31°
2026-04-16 21:25 53.47001 -87.73976 7098 ft 167 kts 31°
2026-04-16 21:25 53.47917 -87.72785 7096 ft 167 kts 31°
2026-04-16 21:25 53.48836 -87.71594 7097 ft 166 kts 30°
2026-04-16 21:25 53.49741 -87.70422 7092 ft 167 kts 31°
2026-04-16 21:26 53.50657 -87.69226 7095 ft 167 kts 31°
2026-04-16 21:26 53.51573 -87.68035 7097 ft 166 kts 31°
2026-04-16 21:26 53.52489 -87.66845 7094 ft 166 kts 31°
2026-04-16 21:26 53.53400 -87.65657 7098 ft 166 kts 31°
2026-04-16 21:27 53.54316 -87.64464 7098 ft 166 kts 31°
2026-04-16 21:27 53.55230 -87.63274 7099 ft 166 kts 31°
2026-04-16 21:27 53.56147 -87.62078 7098 ft 167 kts 31°
2026-04-16 21:27 53.57066 -87.60882 7097 ft 167 kts 31°
2026-04-16 21:28 53.57982 -87.59682 7100 ft 167 kts 31°
2026-04-16 21:28 53.58902 -87.58481 7099 ft 167 kts 31°
2026-04-16 21:28 53.59819 -87.57282 7102 ft 167 kts 31°
2026-04-16 21:28 53.60736 -87.56083 7100 ft 167 kts 31°
2026-04-16 21:29 53.61651 -87.54888 7102 ft 166 kts 31°
2026-04-16 21:29 53.62565 -87.53688 7100 ft 167 kts 31°
2026-04-16 21:29 53.63480 -87.52490 7100 ft 167 kts 31°
2026-04-16 21:29 53.64393 -87.51292 7101 ft 167 kts 31°
2026-04-16 21:30 53.65310 -87.50091 7100 ft 167 kts 31°
2026-04-16 21:30 53.66227 -87.48887 7103 ft 166 kts 31°
2026-04-16 21:30 53.67138 -87.47691 7103 ft 166 kts 31°
2026-04-16 21:30 53.68049 -87.46494 7102 ft 166 kts 31°
2026-04-16 21:31 53.68963 -87.45293 7104 ft 166 kts 31°
2026-04-16 21:31 53.69877 -87.44089 7105 ft 166 kts 31°
2026-04-16 21:31 53.70777 -87.42907 7104 ft 166 kts 31°
2026-04-16 21:31 53.71689 -87.41706 7106 ft 166 kts 31°
2026-04-16 21:32 53.72599 -87.40506 7103 ft 166 kts 31°
2026-04-16 21:32 53.73509 -87.39304 7109 ft 166 kts 31°
2026-04-16 21:32 53.74419 -87.38106 7108 ft 166 kts 31°
2026-04-16 21:32 53.75327 -87.36907 7107 ft 166 kts 31°
2026-04-16 21:33 53.76235 -87.35708 7108 ft 166 kts 31°
2026-04-16 21:33 53.77143 -87.34509 7107 ft 166 kts 31°
2026-04-16 21:33 53.78050 -87.33310 7107 ft 166 kts 31°
2026-04-16 21:33 53.78957 -87.32111 7107 ft 165 kts 31°
2026-04-16 21:34 53.79865 -87.30909 7106 ft 166 kts 31°
2026-04-16 21:34 53.80772 -87.29707 7107 ft 166 kts 31°
2026-04-16 21:34 53.81680 -87.28505 7109 ft 166 kts 31°
2026-04-16 21:34 53.82590 -87.27300 7112 ft 166 kts 31°
2026-04-16 21:35 53.83503 -87.26090 7114 ft 167 kts 31°
2026-04-16 21:35 53.84418 -87.24873 7113 ft 167 kts 31°
2026-04-16 21:35 53.85337 -87.23650 7114 ft 167 kts 31°
2026-04-16 21:35 53.86257 -87.22431 7116 ft 168 kts 31°
2026-04-16 21:36 53.87174 -87.21211 7119 ft 168 kts 31°
2026-04-16 21:36 53.88094 -87.19987 7113 ft 168 kts 31°
2026-04-16 21:36 53.89014 -87.18761 7118 ft 168 kts 31°
2026-04-16 21:36 53.89924 -87.17551 7115 ft 168 kts 31°
2026-04-16 21:37 53.90845 -87.16324 7116 ft 168 kts 31°
2026-04-16 21:37 53.91763 -87.15099 7118 ft 168 kts 31°
2026-04-16 21:37 53.92679 -87.13877 7118 ft 167 kts 31°
2026-04-16 21:37 53.93596 -87.12654 7118 ft 167 kts 31°
2026-04-16 21:38 53.94511 -87.11431 7117 ft 168 kts 31°
2026-04-16 21:38 53.95429 -87.10205 7115 ft 168 kts 32°
2026-04-16 21:38 53.96351 -87.08972 7117 ft 168 kts 31°
2026-04-16 21:38 53.97269 -87.07744 7115 ft 168 kts 31°
2026-04-16 21:39 53.98188 -87.06514 7114 ft 168 kts 31°
2026-04-16 21:39 53.99105 -87.05286 7118 ft 168 kts 31°
2026-04-16 21:39 54.00011 -87.04072 7119 ft 168 kts 32°
2026-04-16 21:39 54.00929 -87.02841 7118 ft 168 kts 32°
2026-04-16 21:40 54.01846 -87.01609 7117 ft 168 kts 32°
2026-04-16 21:40 54.02767 -87.00374 7117 ft 168 kts 32°
2026-04-16 21:40 54.03683 -86.99142 7118 ft 168 kts 32°
2026-04-16 21:40 54.04602 -86.97907 7114 ft 168 kts 32°
2026-04-16 21:41 54.05520 -86.96673 7119 ft 168 kts 32°
2026-04-16 21:41 54.06436 -86.95440 7121 ft 168 kts 32°
2026-04-16 21:41 54.07352 -86.94206 7118 ft 168 kts 32°
2026-04-16 21:41 54.08268 -86.92973 7120 ft 168 kts 32°
2026-04-16 21:42 54.09182 -86.91741 7118 ft 168 kts 32°
2026-04-16 21:42 54.10098 -86.90506 7118 ft 168 kts 32°
2026-04-16 21:42 54.11011 -86.89273 7117 ft 168 kts 32°
2026-04-16 21:42 54.11925 -86.88039 7119 ft 168 kts 32°
2026-04-16 21:43 54.12839 -86.86804 7118 ft 167 kts 32°
2026-04-16 21:43 54.13753 -86.85568 7118 ft 168 kts 32°
2026-04-16 21:43 54.14666 -86.84334 7122 ft 167 kts 32°
2026-04-16 21:43 54.15579 -86.83098 7122 ft 167 kts 32°
2026-04-16 21:44 54.16479 -86.81880 7121 ft 167 kts 32°
2026-04-16 21:44 54.17392 -86.80643 7124 ft 167 kts 32°
2026-04-16 21:44 54.18304 -86.79406 7124 ft 168 kts 32°
2026-04-16 21:44 54.19217 -86.78168 7124 ft 168 kts 32°
2026-04-16 21:45 54.20130 -86.76930 7127 ft 168 kts 32°
2026-04-16 21:45 54.21045 -86.75686 7129 ft 168 kts 32°
2026-04-16 21:45 54.21960 -86.74439 7128 ft 168 kts 32°
2026-04-16 21:45 54.22874 -86.73197 7128 ft 168 kts 32°
2026-04-16 21:46 54.23789 -86.71953 7134 ft 168 kts 32°
2026-04-16 21:46 54.24702 -86.70713 7132 ft 168 kts 32°
2026-04-16 21:46 54.25615 -86.69466 7132 ft 168 kts 32°
2026-04-16 21:46 54.26530 -86.68220 7133 ft 168 kts 32°
2026-04-16 21:47 54.27446 -86.66971 7129 ft 168 kts 32°
2026-04-16 21:47 54.28348 -86.65739 7131 ft 168 kts 32°
2026-04-16 21:47 54.29261 -86.64491 7132 ft 168 kts 32°
2026-04-16 21:47 54.30175 -86.63245 7136 ft 168 kts 32°
2026-04-16 21:48 54.31086 -86.62001 7136 ft 168 kts 32°
2026-04-16 21:48 54.32000 -86.60750 7136 ft 168 kts 32°
2026-04-16 21:48 54.32912 -86.59503 7139 ft 168 kts 32°
2026-04-16 21:48 54.33827 -86.58251 7133 ft 168 kts 32°
2026-04-16 21:49 54.34741 -86.56999 7136 ft 168 kts 32°
2026-04-16 21:49 54.35654 -86.55744 7135 ft 168 kts 32°
2026-04-16 21:49 54.36570 -86.54488 7137 ft 169 kts 33°
2026-04-16 21:49 54.37486 -86.53229 7140 ft 169 kts 32°
2026-04-16 21:50 54.38402 -86.51973 7141 ft 168 kts 32°
2026-04-16 21:50 54.39316 -86.50715 7141 ft 169 kts 33°
2026-04-16 21:50 54.40233 -86.49462 7138 ft 168 kts 32°
2026-04-16 21:50 54.41148 -86.48204 7140 ft 168 kts 32°
2026-04-16 21:51 54.42062 -86.46942 7136 ft 169 kts 33°
2026-04-16 21:51 54.42975 -86.45679 7138 ft 169 kts 33°
2026-04-16 21:51 54.43890 -86.44417 7133 ft 169 kts 33°
2026-04-16 21:51 54.44806 -86.43156 7132 ft 169 kts 33°
2026-04-16 21:52 54.45721 -86.41895 7138 ft 169 kts 33°
2026-04-16 21:52 54.46637 -86.40632 7141 ft 169 kts 33°
2026-04-16 21:52 54.47539 -86.39387 7134 ft 169 kts 33°
2026-04-16 21:52 54.47966 -86.38797 7141 ft 169 kts 33°
2026-04-16 21:53 54.48212 -86.38458 7136 ft 169 kts 32°
2026-04-16 21:53 54.48488 -86.38084 7143 ft 169 kts 32°